This demonstration page uses our WeatherBlox Daily Observations layout. Learn more.

Left ArrowRight Arrow

39.51506, -84.39828

Hourly Observations for March 9, 2017

Temp ( °F °C ) Dew Point ( °F °C ) Humidity (%) Winds ( mph kmh ) Pressure ( in mb ) Visibility ( mi km ) Precip ( " mm )
12:15 am 00:15 Clear 46 7.8 23 -4.8 41 41 SW 5 7 30.21 1023 10 16 0.00 0.00
12:35 am 00:35 Clear 44 6.7 22 -5.4 42 42 W 3 6 30.21 1023 10 16 0.00 0.00
12:55 am 00:55 Clear 41 4.9 24 -4.3 52 52 Calm 30.24 1024 10 16 0.00 0.00
1:15 am 01:15 Clear 39 4.1 26 -3.3 59 59 Calm 30.24 1024 10 16 0.00 0.00
1:35 am 01:35 Clear 40 4.2 28 -2.4 63 63 Calm 30.24 1024 10 16 0.00 0.00
1:55 am 01:55 Clear 37 2.6 28 -2.1 71 71 Calm 30.24 1024 10 16 0.00 0.00
2:15 am 02:15 Clear 37 2.6 29 -1.5 75 75 Calm 30.21 1023 10 16 0.00 0.00
2:35 am 02:35 Clear 37 2.6 29 -1.5 75 75 Calm 30.21 1023 10 16 0.00 0.00
2:55 am 02:55 Clear 35 1.9 28 -2.3 74 74 Calm 30.21 1023 10 16 0.00 0.00
3:15 am 03:15 Clear 34 1.3 28 -2 79 79 NNE 3 6 30.21 1023 10 16 0.00 0.00
3:35 am 03:35 Clear 35 1.7 28 -2.3 75 75 Calm 30.21 1023 10 16 0.00 0.00
3:55 am 03:55 Clear 34 1.2 28 -2.1 79 79 Calm 30.21 1023 10 16 0.00 0.00
4:15 am 04:15 Clear 34 1.2 28 -2.5 77 77 Calm 30.21 1023 10 16 0.00 0.00
4:35 am 04:35 Clear 34 1.2 28 -2.5 77 77 Calm 30.21 1023 10 16 0.00 0.00
4:55 am 04:55 Clear 34 1.2 28 -2.3 78 78 Calm 30.21 1023 10 16 0.00 0.00
5:15 am 05:15 Clear 34 1.2 28 -2.2 78 78 N 5 7 30.21 1023 10 16 0.00 0.00
5:35 am 05:35 Clear 34 1.2 27 -2.8 75 75 ENE 3 6 30.21 1023 10 16 0.00 0.00
5:55 am 05:55 Clear 34 1.2 28 -2.1 79 79 Calm 30.21 1023 10 16 0.00 0.00
6:15 am 06:15 Clear 34 1.2 28 -2.1 79 79 Calm 30.21 1023 10 16 0.00 0.00
6:35 am 06:35 Clear 34 1.2 28 -2 79 79 Calm 30.21 1023 10 16 0.00 0.00
6:55 am 06:55 Clear 34 1.2 29 -1.7 81 81 Calm 30.21 1023 10 16 0.00 0.00
7:15 am 07:15 Sunny 32 0.2 27 -3 79 79 Calm 30.21 1023 10 16 0.00 0.00
7:35 am 07:35 Sunny 34 1.2 28 -2 79 79 Calm 30.21 1023 10 16 0.00 0.00
7:55 am 07:55 Sunny 34 1.2 29 -1.9 80 80 NNE 3 6 30.21 1023 10 16 0.00 0.00
8:15 am 08:15 Sunny 37 2.7 30 -1 77 77 Calm 30.21 1023 10 16 0.00 0.00
8:35 am 08:35 Sunny 39 4.1 30 -1.1 69 69 Calm 30.21 1023 10 16 0.00 0.00
8:55 am 08:55 Sunny 42 5.5 30 -1.1 63 63 Calm 30.18 1022 10 16 0.00 0.00
9:15 am 09:15 Sunny 45 7 28 -2 53 53 Calm 30.18 1022 10 16 0.00 0.00
9:35 am 09:35 Sunny 49 9.6 28 -2.2 44 44 Calm 30.18 1022 10 16 0.00 0.00
9:55 am 09:55 Sunny 49 9.6 24 -4.3 38 38 Calm 30.18 1022 10 16 0.00 0.00
10:15 am 10:15 Sunny 53 11.8 24 -4.2 33 33 Calm 30.18 1022 10 16 0.00 0.00
10:35 am 10:35 Sunny 55 12.5 24 -4.6 30 30 S 3 6 30.18 1022 10 16 0.00 0.00
10:55 am 10:55 Sunny 55 12.5 21 -5.9 27 27 Calm 30.15 1021 10 16 0.00 0.00
11:15 am 11:15 Sunny 56 13.4 21 -6.2 25 25 Calm 30.15 1021 10 16 0.00 0.00
11:35 am 11:35 Sunny 57 13.8 21 -6.1 25 25 Calm 30.15 1021 10 16 0.00 0.00
11:55 am 11:55 Sunny 59 15 23 -5.2 25 25 SW 5 7 30.15 1021 10 16 0.00 0.00
12:15 pm 12:15 Sunny 60 15.3 22 -5.4 24 24 S 5 7 30.12 1020 10 16 0.00 0.00
12:35 pm 12:35 Sunny 61 15.9 23 -4.9 24 24 S 8 13 30.12 1020 10 16 0.00 0.00
12:55 pm 12:55 Sunny 61 16 22 -5.5 23 23 SW 7 11 30.09 1019 10 16 0.00 0.00
1:15 pm 13:15 Sunny 62 16.6 22 -5.4 22 22 S 7 11 30.06 1018 10 16 0.00 0.00
1:35 pm 13:35 Sunny 64 17.6 22 -5.5 20 20 SSW 8 13 30.03 1017 10 16 0.00 0.00
1:55 pm 13:55 Sunny 66 18.8 22 -5.8 18 18 S 7 11 30.00 1016 10 16 0.00 0.00
2:15 pm 14:15 Sunny 67 19.5 22 -5.6 18 18 SSW 10 17 30.00 1016 10 16 0.00 0.00
2:35 pm 14:35 Sunny 69 20.8 21 -5.9 16 16 SSW 10 17 30.00 1016 10 16 0.00 0.00
2:55 pm 14:55 Sunny 69 20.8 21 -6.1 16 16 SW 12 19 29.97 1015 10 16 0.00 0.00
3:15 pm 15:15 Sunny 69 20.8 19 -7.1 15 15 SW 9 15 29.97 1015 10 16 0.00 0.00
3:35 pm 15:35 Sunny 69 20.8 19 -7.3 14 14 SW 7 11 29.97 1015 10 16 0.00 0.00
3:55 pm 15:55 Partly Cloudy 69 20.8 20 -6.5 15 15 W 9 15 29.97 1015 10 16 0.00 0.00
4:15 pm 16:15 Sunny 69 20.8 22 -5.7 16 16 W 10 17 29.97 1015 10 16 0.00 0.00
4:35 pm 16:35 Sunny 69 20.8 25 -3.7 19 19 WNW 6 9 29.94 1014 10 16 0.00 0.00
4:55 pm 16:55 Partly Cloudy 69 20.8 27 -3 20 20 WNW 6 9 29.94 1014 10 16 0.00 0.00
5:15 pm 17:15 Mostly Cloudy 67 19.5 26 -3.1 22 22 WNW 5 7 29.94 1014 10 16 0.00 0.00
5:35 pm 17:35 Mostly Cloudy 67 19.2 28 -2 24 24 NNW 10 17 29.94 1014 10 16 0.00 0.00
5:55 pm 17:55 Partly Cloudy 63 17.3 29 -1.7 28 28 NNE 5 7 29.91 1013 10 16 0.00 0.00
6:15 pm 18:15 Partly Cloudy 61 16 32 -0.2 33 33 N 7 11 29.94 1014 10 16 0.00 0.00
6:35 pm 18:35 Mostly Cloudy 60 15.3 30 -1.2 32 32 N 12 19 29.94 1014 10 16 0.00 0.00
6:55 pm 18:55 Cloudy 57 13.8 26 -3.4 30 30 N 13 20 30.00 1016 10 16 0.00 0.00
7:15 pm 19:15 Mostly Cloudy 57 13.8 25 -3.9 29 29 N 9 15 30.00 1016 10 16 0.00 0.00
7:35 pm 19:35 Cloudy 57 13.8 23 -4.9 27 27 N 10 17 30.00 1016 10 16 0.00 0.00
7:55 pm 19:55 Cloudy 55 12.5 22 -5.8 28 28 N 12 19 30.00 1016 10 16 0.00 0.00
8:15 pm 20:15 Cloudy 55 12.5 19 -7.5 24 24 NNE 10 17 30.00 1016 10 16 0.00 0.00
8:35 pm 20:35 Cloudy 55 12.5 21 -6.2 27 27 N 12 19 30.03 1017 10 16 0.00 0.00
8:55 pm 20:55 Cloudy 55 12.5 21 -6 27 27 N 10 17 30.03 1017 10 16 0.00 0.00
9:15 pm 21:15 Cloudy 52 11 20 -6.8 28 28 N 10 17 30.03 1017 10 16 0.00 0.00
9:35 pm 21:35 Cloudy 51 10.3 17 -8.6 26 26 NNE 13 20 30.03 1017 10 16 0.00 0.00
9:55 pm 21:55 Cloudy 49 9.6 17 -8.4 27 27 NNE 13 20 30.03 1017 10 16 0.00 0.00
10:15 pm 22:15 Cloudy with Light Snow 49 9.6 25 -4.1 38 38 N 13 20 30.06 1018 10 16 0.00 0.00
10:35 pm 22:35 Cloudy with Light Snow 46 7.8 28 -2.4 49 49 N 9 15 30.06 1018 10 16 0.00 0.00
10:55 pm 22:55 Cloudy with Light Snow 43 6.2 28 -2.4 54 54 N 3 6 30.06 1018 7 11 0.00 0.00
11:15 pm 23:15 Cloudy with Light Snow 42 5.5 29 -1.5 61 61 N 8 13 30.06 1018 10 16 0.00 0.00
11:35 pm 23:35 Cloudy with Light Snow 40 4.7 31 -0.6 69 69 NNE 9 15 30.03 1017 5 8 0.00 0.00
11:55 pm 23:55 Cloudy with Light Snow 40 4.5 31 -0.7 69 69 NNE 6 9 30.03 1017 5 8 0.00 0.00

Powered by AerisWeather